Wind_Speed
7 10 13 15 20 20 21 22 21 19 16 13 11 9 8 7 6 5 4 3 2 1 1 0 1 1 2 2 2 2 3 3 3 3 3 4 5 6 8 9 10 11 12
3 7 11 14 17 19 19 19 18 17 15 13 10 9 9 8 6 5 4 3 2 1 1 1 1 1 2 2 2 3 3 3 3 3 3 4 5 6 7 8 9 11 12
1 3 8 11 14 16 17 17 16 16 14 12 10 10 9 8 6 5 4 3 3 2 1 1 1 1 2 2 3 3 3 3 3 3 4 5 5 6 7 8 9 10 11
1 1 5 9 13 15 15 15 15 15 14 12 11 10 9 8 7 6 5 4 3 2 2 1 1 1 1 2 3 3 4 4 4 4 5 6 7 8 8 9 10 11 12
3 2 4 8 11 12 13 14 14 13 12 12 10 10 9 8 7 6 5 4 4 3 3 2 2 1 1 2 3 4 4 5 5 6 6 7 8 9 10 10 11 12 13
3 3 3 6 10 12 13 13 13 12 12 11 10 10 9 8 7 6 6 5 5 4 4 4 4 3 3 4 4 5 6 7 7 8 9 9 10 10 11 12 13 13 14
4 3 4 6 8 10 12 12 12 12 11 10 10 9 8 8 7 7 6 6 6 6 6 6 6 6 6 7 7 8 8 9 10 11 11 12 12 13 13 14 15 15 16
4 2 3 4 7 8 10 11 11 11 10 10 9 9 8 7 7 7 7 7 7 8 8 8 9 9 9 10 10 11 11 12 12 13 13 14 15 15 15 16 17 17 18
3 2 1 2 4 6 8 9 10 10 10 10 9 9 8 8 8 8 8 8 9 9 10 10 11 12 12 13 13 14 15 15 15 16 16 17 17 17 18 18 19 19 20
2 1 1 3 4 6 7 8 9 10 10 10 10 10 10 10 10 10 10 11 11 12 13 13 14 15 15 16 16 17 17 18 18 19 19 19 19 20 20 21 21 22 22
5 4 4 4 5 7 8 9 10 10 11 11 12 12 12 13 13 13 14 14 15 16 16 17 17 18 18 19 20 20 21 21 21 21 21 21 22 22 22 23 23 24 24
8 7 7 7 7 8 9 10 11 12 13 13 14 15 15 16 16 17 17 18 19 20 20 21 21 21 22 22 23 23 23 23 23 24 24 24 24 24 25 25 25 26 26
10 10 10 10 10 10 11 12 13 14 15 16 17 17 18 19 20 21 21 22 23 23 24 24 24 24 25 25 25 25 26 26 26 26 26 27 27 27 27 27 28 28 28
12 12 12 13 13 13 13 14 15 16 17 18 19 20 21 21 22 23 24 25 26 27 27 27 27 27 27 28 28 28 28 29 29 29 29 29 29 30 30 30 30 30 30
14 14 14 15 15 16 16 16 17 17 18 19 20 21 22 23 24 26 27 28 28 29 29 29 29 29 29 30 30 30 31 32 32 32 32 32 32 32 32 32 33 33 33
16 17 17 17 18 19 20 20 20 20 21 22 23 23 24 25 26 28 29 29 30 31 31 31 31 31 31 32 32 33 34 34 34 34 35 35 35 35 35 36 36 36 36
20 20 20 20 21 22 23 23 23 23 24 24 26 27 27 28 29 30 31 32 32 33 33 33 34 34 34 35 36 37 38 37 36 37 38 38 39 39 39 39 39 39 39
22 23 24 24 25 25 25 26 26 26 27 28 29 30 31 31 32 33 33 35 35 36 36 36 37 37 37 39 40 42 42 41 40 41 41 41 42 43 43 44 43 43 42
25 26 27 28 29 29 29 29 30 30 31 31 32 32 33 34 35 36 36 37 38 38 39 40 41 41 42 43 44 45 46 46 45 45 45 46 46 46 47 48 48 46 46
27 29 30 31 32 31 32 32 33 34 34 34 34 34 35 36 37 38 39 40 40 41 42 43 44 45 46 47 48 49 50 50 50 50 50 50 49 50 50 52 52 50 49
27 29 30 32 33 33 33 32 33 35 36 37 37 37 38 38 40 41 42 43 44 44 45 46 47 49 49 50 51 52 53 53 54 54 54 54 53 53 54 55 55 54 53
28 30 31 31 32 32 33 34 35 36 37 38 39 39 40 41 42 44 45 46 46 47 48 49 50 52 52 53 54 55 56 56 57 57 57 58 58 58 58 58 58 58 58
29 31 32 33 32 32 33 34 35 36 37 39 40 40 42 43 44 45 46 47 48 49 50 52 53 54 55 56 57 58 59 60 61 61 61 61 62 62 62 62 62 62 62
29 30 31 31 31 32 33 34 35 36 38 40 40 42 43 44 45 46 48 49 50 51 52 54 55 57 58 59 60 61 62 63 64 64 65 65 65 66 66 66 65 64 64
27 26 27 28 30 32 33 34 35 36 38 39 41 42 44 45 46 48 49 51 52 54 56 57 59 60 61 62 64 65 65 67 68 68 69 69 69 69 69 68 67 66 66
28 28 29 30 32 33 34 35 36 38 39 41 42 44 45 47 48 50 52 54 56 57 59 61 63 64 66 67 68 69 70 71 72 72 71 71 71 70 69 68 67 66 65
Wind_Direction
237 221 214 214 212 213 212 212 209 207 205 204 206 205 198 194 192 188 183 181 176 165 138 74 25 9 11 8 1 355 345 331 319 306 294 285 277 274 271 270 268 267 265
247 222 220 217 212 205 204 201 197 196 197 199 198 195 186 182 183 183 184 186 183 170 138 83 47 36 29 19 11 7 1 352 340 326 311 301 294 288 282 278 275 272 269
297 209 201 200 197 194 192 193 192 191 189 190 192 190 185 182 182 182 183 187 184 177 157 130 88 64 44 34 25 21 15 3 349 333 320 309 300 294 291 286 281 279 276
20 168 193 190 188 187 189 188 184 184 184 186 189 190 187 185 186 184 185 188 184 174 168 172 166 132 37 10 7 1 356 353 348 338 327 318 311 304 296 290 286 283 280
54 95 160 174 176 178 179 179 178 181 183 184 189 190 189 190 187 186 187 191 193 198 207 210 216 239 290 322 331 337 338 336 332 328 324 320 315 309 304 298 292 287 284
59 78 129 159 168 175 178 180 180 182 183 187 190 193 194 191 191 194 197 205 213 222 230 233 245 261 276 290 303 309 312 314 311 311 312 312 311 308 305 301 297 292 288
46 74 110 148 164 174 179 182 184 184 189 194 195 198 198 199 204 206 211 220 229 238 243 248 257 267 275 282 289 295 298 300 301 302 304 306 307 306 303 301 297 295 291
34 70 116 151 167 174 182 183 185 192 197 200 202 203 206 210 216 221 226 233 239 245 250 256 262 268 275 280 283 287 291 294 296 296 298 300 303 302 300 299 298 295 292
13 33 95 141 165 177 183 190 197 204 207 208 210 214 220 224 229 233 237 242 247 252 255 260 265 270 275 278 280 285 287 290 292 292 294 295 296 297 297 296 296 295 293
300 301 250 217 210 205 205 208 211 215 217 220 223 226 230 235 239 243 246 250 255 258 260 264 269 274 277 279 280 283 285 287 288 288 289 290 291 292 292 292 292 293 292
286 274 259 246 237 230 226 225 224 226 229 231 233 236 239 242 247 250 253 256 260 263 266 268 272 275 277 279 281 283 284 285 286 286 286 287 288 289 290 289 290 291 290
277 274 271 262 254 246 240 238 238 239 239 240 242 244 246 249 252 255 258 261 264 267 270 272 274 277 279 280 282 283 284 284 285 285 285 286 287 286 287 288 287 289 289
275 273 271 268 263 256 248 246 246 247 247 248 249 251 253 256 258 261 264 266 269 271 273 275 277 280 281 282 283 284 285 285 285 285 285 285 286 286 286 286 286 286 287
275 274 271 268 266 262 257 254 253 253 254 255 256 258 260 262 264 267 269 271 273 275 276 278 280 281 283 284 285 285 285 285 285 285 285 285 285 286 286 286 285 286 286
271 274 272 269 268 267 264 261 260 260 260 260 261 263 265 267 269 270 272 274 275 277 278 280 281 283 284 284 284 284 284 284 285 284 284 284 285 285 286 286 285 286 286
267 271 272 270 268 267 266 265 263 262 262 262 263 265 267 269 270 272 275 276 277 278 280 281 282 283 284 283 283 283 283 284 285 285 283 283 284 285 286 286 285 286 286
266 268 269 269 267 267 264 262 263 264 265 265 267 268 270 271 272 274 275 276 277 279 281 282 283 284 284 283 283 283 283 284 285 285 283 283 283 283 284 284 285 286 286
265 267 267 265 265 265 265 262 260 262 264 265 267 268 269 271 273 274 275 276 278 280 280 281 283 284 284 283 283 283 283 284 284 284 284 283 284 284 284 283 284 284 284
261 263 264 264 264 263 263 263 262 262 263 265 269 270 271 272 273 275 277 278 279 280 281 282 283 284 284 284 284 285 285 285 285 285 285 285 284 284 284 283 283 283 284
261 262 261 262 261 260 260 262 264 264 264 266 267 270 273 274 276 278 279 280 281 282 283 284 284 284 284 284 285 285 284 284 284 284 284 284 284 283 282 282 282 282 283
262 263 262 261 260 260 260 262 266 267 267 268 269 271 272 274 277 280 281 281 282 282 283 284 284 284 284 284 284 284 284 284 284 283 284 283 282 281 281 281 281 282 281
263 263 261 260 261 260 261 263 266 270 271 272 272 274 275 277 279 280 280 282 283 284 284 285 285 285 285 285 284 284 284 284 283 283 283 282 282 281 280 280 280 280 279
266 264 263 262 262 262 263 265 268 270 272 274 275 276 278 279 280 282 283 284 284 285 285 285 285 285 285 285 284 284 284 283 283 282 282 281 281 280 280 279 279 278 278
271 268 267 267 266 266 269 271 274 276 276 277 279 281 282 283 284 284 285 285 286 286 286 286 286 286 285 285 285 284 284 283 283 282 282 281 281 280 279 279 278 277 276
272 272 272 272 273 275 275 277 279 281 282 282 283 284 284 285 286 286 287 287 287 287 287 287 287 286 286 286 285 285 284 284 283 282 282 281 281 280 279 278 277 276 275
277 278 278 279 279 279 281 283 284 285 285 285 285 286 287 287 288 288 289 289 289 289 289 289 288 288 287 287 286 286 285 284 284 283 282 281 281 280 279 278 276 275 274
Height
5844 5845 5847 5849 5852 5855 5857 5861 5865 5868 5871 5873 5875 5877 5878 5879 5880 5881 5881 5881 5881 5881 5881 5881 5881 5881 5880 5880 5880 5880 5879 5879 5879 5879 5878 5878 5878 5877 5877 5877 5877 5877 5877
5843 5844 5845 5846 5849 5852 5855 5859 5863 5866 5869 5872 5874 5876 5877 5878 5880 5880 5880 5880 5881 5881 5881 5881 5881 5881 5880 5880 5880 5879 5879 5878 5878 5878 5877 5877 5877 5876 5875 5875 5875 5875 5874
5844 5843 5844 5846 5848 5851 5853 5857 5861 5864 5868 5871 5873 5875 5877 5878 5879 5879 5879 5880 5880 5880 5880 5880 5880 5880 5880 5880 5879 5879 5878 5878 5877 5877 5876 5876 5876 5875 5874 5873 5873 5872 5872
5845 5844 5845 5846 5848 5851 5854 5857 5860 5864 5867 5870 5872 5874 5876 5877 5878 5878 5879 5879 5879 5880 5880 5880 5880 5880 5880 5879 5879 5878 5878 5877 5877 5876 5875 5875 5874 5873 5872 5872 5871 5870 5869
5847 5846 5845 5846 5848 5851 5854 5857 5860 5864 5867 5869 5872 5874 5875 5876 5877 5877 5878 5878 5879 5879 5879 5879 5880 5879 5879 5879 5878 5878 5877 5876 5876 5875 5874 5873 5872 5871 5870 5869 5869 5868 5867
5849 5848 5847 5847 5849 5851 5854 5857 5861 5863 5866 5869 5871 5872 5874 5875 5875 5876 5877 5877 5878 5878 5878 5879 5879 5878 5878 5878 5877 5877 5876 5875 5874 5873 5872 5871 5870 5869 5868 5867 5866 5865 5864
5851 5850 5850 5850 5851 5853 5855 5858 5861 5864 5866 5868 5870 5871 5872 5873 5874 5875 5876 5876 5877 5877 5877 5877 5877 5877 5876 5876 5875 5875 5874 5873 5872 5871 5870 5869 5867 5866 5865 5864 5863 5861 5860
5852 5852 5852 5852 5852 5854 5856 5858 5861 5863 5865 5867 5868 5870 5871 5872 5873 5873 5874 5874 5875 5875 5876 5875 5875 5875 5874 5874 5873 5872 5871 5870 5869 5868 5866 5865 5864 5862 5861 5860 5859 5857 5856
5854 5853 5853 5854 5855 5856 5857 5859 5861 5863 5864 5865 5867 5868 5869 5870 5871 5871 5872 5872 5873 5873 5873 5873 5873 5872 5872 5871 5870 5869 5868 5867 5866 5864 5863 5861 5860 5858 5857 5855 5854 5853 5851
5854 5854 5854 5855 5856 5857 5858 5859 5860 5862 5863 5864 5865 5866 5867 5868 5868 5869 5869 5870 5870 5870 5870 5870 5869 5869 5868 5867 5866 5865 5864 5863 5861 5860 5858 5857 5855 5854 5852 5850 5848 5847 5846
5854 5854 5854 5854 5855 5856 5857 5858 5859 5860 5861 5862 5862 5863 5864 5865 5865 5866 5866 5866 5866 5866 5866 5865 5865 5864 5863 5862 5861 5860 5859 5857 5856 5855 5853 5852 5850 5848 5846 5844 5843 5841 5839
5852 5852 5853 5853 5853 5854 5855 5855 5856 5857 5858 5859 5859 5860 5860 5861 5861 5862 5862 5862 5862 5861 5861 5860 5859 5859 5858 5857 5855 5854 5852 5851 5850 5848 5847 5846 5844 5842 5840 5838 5836 5834 5832
5849 5849 5850 5851 5851 5852 5852 5853 5853 5854 5855 5855 5856 5856 5856 5857 5857 5857 5857 5857 5857 5856 5855 5855 5854 5853 5851 5850 5849 5847 5846 5844 5843 5841 5840 5838 5836 5835 5833 5831 5829 5827 5825
5846 5846 5847 5847 5848 5848 5849 5849 5850 5850 5851 5851 5851 5852 5852 5852 5852 5852 5852 5851 5851 5850 5849 5848 5847 5846 5845 5843 5841 5840 5838 5836 5835 5833 5831 5830 5828 5826 5824 5822 5820 5818 5816
5843 5843 5843 5843 5843 5844 5844 5845 5845 5846 5846 5846 5846 5846 5847 5846 5846 5846 5845 5845 5844 5843 5842 5841 5840 5838 5837 5835 5833 5831 5830 5828 5826 5824 5822 5821 5819 5817 5815 5813 5811 5809 5807
5839 5839 5838 5839 5839 5839 5839 5840 5840 5840 5840 5841 5841 5840 5840 5840 5839 5839 5838 5837 5836 5835 5834 5833 5831 5830 5828 5827 5824 5822 5820 5818 5817 5815 5813 5811 5809 5807 5805 5803 5800 5799 5796
5834 5834 5834 5834 5834 5834 5834 5834 5834 5834 5834 5834 5834 5834 5833 5833 5832 5831 5830 5829 5828 5826 5825 5823 5822 5820 5819 5817 5814 5811 5809 5808 5807 5804 5802 5800 5797 5796 5794 5791 5789 5787 5785
5828 5828 5828 5828 5828 5828 5828 5827 5828 5828 5828 5827 5827 5826 5825 5825 5824 5823 5822 5820 5819 5817 5815 5813 5812 5810 5808 5805 5803 5800 5798 5796 5795 5793 5790 5788 5785 5783 5781 5778 5777 5775 5773
5822 5822 5822 5821 5821 5821 5821 5820 5820 5820 5820 5819 5818 5817 5816 5815 5814 5813 5812 5810 5808 5806 5804 5803 5800 5798 5796 5793 5790 5787 5785 5783 5782 5779 5777 5775 5773 5771 5767 5764 5762 5761 5760
5815 5815 5814 5814 5814 5813 5813 5812 5812 5811 5811 5810 5809 5808 5807 5806 5805 5803 5801 5799 5797 5795 5793 5790 5788 5786 5783 5780 5777 5774 5771 5769 5767 5765 5763 5761 5759 5756 5753 5749 5747 5747 5746
5808 5807 5806 5806 5805 5805 5804 5803 5803 5802 5801 5800 5799 5798 5797 5796 5794 5792 5790 5788 5786 5783 5780 5778 5775 5772 5769 5766 5763 5760 5756 5754 5752 5749 5747 5745 5743 5740 5737 5734 5732 5731 5729
5800 5799 5798 5797 5796 5795 5795 5794 5794 5793 5792 5791 5789 5788 5787 5785 5783 5781 5779 5776 5773 5770 5768 5765 5761 5758 5754 5751 5748 5744 5741 5737 5735 5733 5730 5727 5724 5722 5719 5717 5715 5713 5711
5791 5790 5789 5788 5787 5787 5787 5786 5785 5783 5782 5781 5779 5778 5776 5774 5772 5769 5766 5763 5760 5757 5754 5750 5747 5743 5739 5735 5731 5728 5724 5720 5716 5714 5711 5709 5706 5702 5700 5698 5696 5693 5691
5783 5782 5781 5780 5779 5779 5777 5777 5776 5774 5772 5771 5769 5767 5765 5762 5759 5756 5753 5750 5746 5742 5738 5734 5730 5726 5722 5717 5713 5709 5705 5701 5697 5694 5691 5688 5685 5682 5679 5677 5675 5673 5671
5775 5774 5773 5772 5771 5770 5769 5767 5766 5764 5762 5760 5758 5755 5752 5749 5746 5742 5739 5735 5730 5726 5722 5718 5713 5709 5704 5699 5694 5689 5685 5680 5676 5672 5669 5666 5662 5659 5657 5654 5652 5651 5649
5768 5766 5765 5764 5762 5761 5760 5758 5756 5754 5751 5749 5746 5743 5739 5736 5732 5728 5724 5719 5714 5709 5704 5699 5694 5688 5684 5678 5673 5668 5663 5658 5652 5648 5645 5642 5638 5635 5633 5630 5629 5628 5627